www.pogodaiklimat.ru

Погода и климат >> Архив погоды >> Австралия >> Северная территория >> Теннант-Крик


ПОГОДА в Теннант-Крике

  • Прогноз погоды в Теннант-Крике
  • Монитор погоды в Теннант-Крике

АРХИВ ПОГОДЫ в Теннант-Крике

Время (UTC), дата Ветер
(напр.,м/с)
 
Видим.   Явления Облачность Т
(С)
Тd
(С)
f
(%)
Тe
(С)
Тes
(С)
Комфортность P
(гПа)
Po
(гПа)
Тmin
(С)
Tmax
(С)
R
(мм)
R24
(мм)
S
(см)
11 9.07 Ю 3 н/о 9/0 2000 м
[]
+22.0 +5.8 35 +23 +23 комфорт 1018.9 975.2
12 9.07 Ю 3 н/о н/о +21.2 +5.9 37 +22 +22 комфорт 1019.5 975.8
14 9.07 ЮВ 3 н/о н/о +19.6 +5.6 40 +20 +20 1019.0 975.3
15 9.07 ЮВ 4 н/о н/о +18.9 +5.4 41 +19 +19 1019.1 975.4
17 9.07 ЮВ 4 н/о н/о +17.5 +5.4 45 +17 +17 1018.7 975.0
18 9.07 В 4 н/о н/о +17.1 +5.1 45 +17 +17 1018.5 974.8
20 9.07 В 4 н/о н/о +16.2 +4.6 46 +16 +16 1018.8 975.1
21 9.07 В 4 н/о н/о +15.0 +4.4 49 +14 +14 1019.2 975.5
23 9.07 ЮВ 8 н/о н/о +17.4 +2.2 36 +16 +16 1020.9 977.1
00 10.07 В 7 н/о н/о +19.3 +1.8 31 +19 +19 1021.4 977.6
02 10.07 ЮВ 5 н/о н/о +22.6 +1.6 25 +22 +22 комфорт 1020.9 977.1
03 10.07 ЮВ 5 н/о н/о +23.1 -0.4 21 +22 +22 комфорт 1019.7 976.0
05 10.07 ЮВ 4 н/о н/о +24.2 -0.2 20 +23 +23 комфорт 1018.0 974.3
06 10.07 ЮВ 4 н/о н/о +24.7 -0.4 19 +23 +23 комфорт 1017.8 974.1
08 10.07 ЮВ 3 н/о н/о +23.8 +0.2 21 +23 +23 комфорт 1018.2 974.5
09 10.07 ЮВ 3 н/о н/о +22.6 +1.6 25 +22 +22 комфорт 1018.8 975.1
11 10.07 ЮВ 3 н/о н/о +18.7 +2.1 33 +19 +19 1020.2 976.4
12 10.07 В 3 н/о н/о +18.3 +2.2 34 +19 +19 1020.6 976.8
14 10.07 ЮВ 4 н/о н/о +17.5 +1.9 35 +17 +17 1020.6 976.8 +25.1
15 10.07 ЮВ 4 н/о н/о +16.6 +1.1 35 +16 +16 1020.5 976.7
17 10.07 ЮВ 4 н/о н/о +15.9 -1.2 31 +15 +15 1020.4 976.6
18 10.07 ЮВ 4 н/о н/о +15.6 -3.3 27 +15 +15 1020.3 976.5
20 10.07 ЮВ 5 н/о н/о +15.6 -6.0 22 +15 +15 1020.7 976.9
21 10.07 ЮВ 5 н/о н/о +15.1 -5.9 23 +14 +14 1021.4 977.6
23 10.07 ЮВ 7 н/о н/о +18.0 -5.3 20 +17 +17 1022.9 979.0
00 11.07 ЮВ 7 н/о н/о +21.5 -4.5 17 +20 +20 1023.4 979.5
02 11.07 В 9 н/о н/о +24.9 -2.6 16 +23 +23 комфорт 1022.5 978.6 +14.5
03 11.07 В 7 н/о н/о +25.5 -1.3 17 +24 +24 комфорт 1021.5 977.7
05 11.07 В 5 н/о н/о +26.4 -0.6 17 +24 +24 комфорт 1019.6 975.9
06 11.07 ЮВ 6 н/о н/о +26.1 -0.8 17 +24 +24 комфорт 1019.4 975.7
08 11.07 ЮВ 5 н/о н/о +25.6 -1.2 17 +24 +24 комфорт 1019.6 975.9
09 11.07 ЮВ 4 н/о н/о +23.9 -1.8 18 +22 +22 комфорт 1020.2 976.4
11 11.07 ЮВ 4 н/о н/о +20.7 -3.7 19 +21 +21 комфорт 1021.9 978.1
12 11.07 ЮВ 4 н/о н/о +19.7 -3.9 20 +20 +20 1022.6 978.7
14 11.07 ЮВ 4 н/о н/о +17.6 -3.7 23 +17 +17 1022.7 978.8 +27.0
15 11.07 ЮВ 5 н/о н/о +17.5 -3.3 24 +17 +17 1022.4 978.5
17 11.07 ЮВ 5 н/о н/о +17.0 -2.6 26 +16 +16 1021.9 978.1
18 11.07 ЮВ 5 н/о н/о +16.6 -2.5 27 +16 +16 1021.8 978.0
20 11.07 В 6 н/о н/о +16.1 -1.9 29 +15 +15 1021.9 978.1
21 11.07 В 6 н/о н/о +15.4 -1.6 31 +14 +14 1022.3 978.4
23 11.07 В 8 н/о н/о +17.1 -1.1 29 +16 +16 1023.2 979.3
00 12.07 В 9 н/о н/о +19.3 -0.7 26 +19 +19 1023.5 979.6
02 12.07 ЮВ 7 н/о н/о +23.7 -0.6 20 +22 +22 комфорт 1022.7 978.8 +15.1
03 12.07 В 6 н/о н/о +24.5 -1.3 18 +23 +23 комфорт 1021.6 977.8
05 12.07 ЮВ 5 н/о н/о +25.5 -0.5 18 +24 +24 комфорт 1019.3 975.6
06 12.07 В 5 н/о н/о +26.2 -1.6 16 +24 +24 комфорт 1018.7 975.0
08 12.07 ЮВ 6 н/о н/о +24.8 -2.7 16 +23 +23 комфорт 1018.9 975.2
09 12.07 ЮВ 4 н/о н/о +22.9 -3.4 17 +21 +21 комфорт 1019.4 975.7
11 12.07 ЮВ 4 н/о н/о +19.8 -3.1 21 +20 +20 1021.4 977.6
12 12.07 В 4 н/о н/о +18.8 -2.7 23 +19 +19 1021.8 978.0
14 12.07 В 4 н/о н/о +16.9 -2.7 26 +17 +17 1022.1 978.3 +26.6
15 12.07 ЮВ 5 н/о н/о +16.5 -2.0 28 +16 +16 1022.3 978.4
17 12.07 В 5 н/о н/о +15.4 -1.6 31 +14 +14 1021.9 978.1
18 12.07 ЮВ 6 н/о н/о +15.1 -0.2 35 +14 +14 1022.0 978.2
20 12.07 ЮВ 5 н/о н/о +14.2 +1.8 43 +13 +13 1022.8 978.9
21 12.07 ЮВ 5 н/о н/о +13.9 +2.5 46 +12 +12 1023.0 979.1
23 12.07 ЮВ 7 н/о н/о +16.0 +3.8 44 +15 +15 1023.9 980.0
00 13.07 ЮВ 10 н/о н/о +18.2 +4.7 41 +17 +17 1024.4 980.5
02 13.07 ЮВ 10 н/о н/о +21.2 +2.5 29 +21 +21 комфорт 1023.7 979.8 +13.8
03 13.07 ЮВ 9 н/о н/о +22.6 +2.1 26 +22 +22 комфорт 1022.7 978.8
05 13.07 ЮВ 9 н/о н/о +24.3 -0.1 20 +23 +23 комфорт 1020.4 976.6
06 13.07 ЮВ 8 н/о н/о +24.2 -0.2 20 +23 +23 комфорт 1020.0 976.2
08 13.07 ЮВ 8 н/о н/о +22.9 +0.7 23 +22 +22 комфорт 1020.5 976.7
09 13.07 ЮВ 7 н/о н/о +21.3 +0.5 25 +21 +21 комфорт 1021.1 977.3
11 13.07 ЮВ 6 н/о н/о +19.1 +1.6 31 +19 +19 1022.6 978.7
12 13.07 ЮВ 6 н/о н/о +18.2 +1.7 33 +18 +18 1022.9 979.0
14 13.07 ЮВ 9 н/о н/о +16.5 +3.2 41 +15 +15 1023.2 979.3 +24.8
15 13.07 ЮВ 7 н/о н/о +15.2 +3.4 45 +14 +14 1023.3 979.4
17 13.07 ЮВ 9 н/о н/о +13.6 +3.4 50 +11 +11 1023.3 979.4
18 13.07 ЮВ 9 н/о н/о +12.7 +3.4 53 +10 +10 1023.1 979.2
20 13.07 ЮВ 9 н/о н/о +11.3 +2.6 55 +8 +8 1023.8 979.9
21 13.07 ЮВ 9 н/о н/о +10.6 +1.7 54 +7 +7 1024.3 980.4
23 13.07 ЮВ 10 н/о н/о +11.3 -0.2 45 +8 +8 1025.3 981.3
00 14.07 ЮВ 11 н/о н/о +13.0 +1.0 44 +10 +10 1026.0 982.0
02 14.07 ЮВ 10 н/о н/о +15.2 -0.1 35 +13 +13 1025.3 981.3 +10.3
03 14.07 ЮВ 10 н/о н/о +16.8 -1.8 28 +15 +15 1024.0 980.1
05 14.07 ЮВ 8 н/о н/о +18.8 -3.3 22 +18 +18 1021.5 977.7
06 14.07 ЮВ 9 н/о н/о +19.6 -4.6 19 +19 +19 1021.0 977.2
08 14.07 ЮВ 8 н/о н/о +18.7 -6.1 18 +18 +18 1021.0 977.2
09 14.07 ЮВ 8 н/о н/о +17.5 -6.3 19 +17 +17 1021.6 977.8
11 14.07 ЮВ 7 н/о н/о +15.4 -6.2 22 +14 +14 1023.3 979.4
12 14.07 ЮВ 8 н/о н/о +14.6 -6.3 23 +13 +13 1023.4 979.5
14 14.07 ЮВ 9 н/о н/о +13.0 -5.1 28 +10 +10 1023.6 979.7 +20.3
15 14.07 ЮВ 8 н/о н/о +12.4 -4.7 30 +10 +10 1023.5 979.6
17 14.07 ЮВ 10 н/о н/о +11.6 -4.1 33 +8 +8 1023.0 979.1
18 14.07 ЮВ 9 н/о н/о +11.0 -3.8 35 +8 +8 1023.0 979.1
20 14.07 ЮВ 9 н/о н/о +10.1 -3.2 39 +7 +7 1023.3 979.4
21 14.07 ЮВ 9 н/о н/о +9.6 -3.3 40 +6 +6 1023.7 979.8
23 14.07 ЮВ 10 н/о н/о +10.8 -2.9 38 +7 +7 1024.8 980.8
00 15.07 ЮВ 11 н/о н/о +12.7 -2.7 34 +10 +10 1025.2 981.2
02 15.07 ЮВ 10 н/о н/о +16.5 -3.6 25 +15 +15 1024.2 980.3 +9.3
03 15.07 ЮВ 10 н/о н/о +17.5 -4.4 22 +16 +16 1022.8 978.9
05 15.07 В 9 н/о н/о +19.9 -5.8 17 +19 +19 1020.5 976.7
06 15.07 В 9 н/о н/о +20.4 -5.4 17 +19 +19 1019.7 976.0
08 15.07 ЮВ 8 н/о н/о +20.1 -6.5 16 +19 +19 1019.6 975.9
09 15.07 ЮВ 7 н/о н/о +18.7 -6.1 18 +18 +18 1020.3 976.5
11 15.07 ЮВ 5 н/о н/о +16.2 -5.5 22 +15 +15 1021.7 977.9
12 15.07 ЮВ 6 н/о н/о +15.3 -5.1 24 +14 +14 1022.1 978.3
14 15.07 ЮВ 8 н/о н/о +14.6 -4.2 27 +13 +13 1021.9 978.1 +21.3
15 15.07 ЮВ 8 н/о н/о +13.8 -3.5 30 +12 +12 1021.8 978.0
17 15.07 ЮВ 8 н/о н/о +12.6 -1.3 38 +10 +10 1021.5 977.7
18 15.07 ЮВ 9 н/о н/о +12.2 -0.6 41 +9 +9 1021.2 977.4
20 15.07 ЮВ 8 н/о н/о +11.3 -0.2 45 +8 +8 1021.8 978.0
21 15.07 ЮВ 8 н/о н/о +10.8 +0.2 48 +7 +7 1022.1 978.3
23 15.07 ЮВ 10 н/о н/о +11.4 +1.6 51 +8 +8 1023.3 979.4
00 16.07 ЮВ 11 н/о н/о +12.5 +1.8 48 +9 +9 1023.4 979.5
02 16.07 ЮВ 9 н/о н/о +15.6 +0.6 36 +14 +14 1022.6 978.7 +10.3
03 16.07 ЮВ 8 н/о н/о +18.5 -0.8 27 +18 +18 1021.5 977.7
05 16.07 ЮВ 8 н/о н/о +20.3 -3.4 20 +20 +20 1019.7 976.0
06 16.07 ЮВ 6 н/о н/о +21.4 -3.9 18 +20 +20 1019.2 975.5
09 16.07 ЮВ 5 н/о н/о +19.2 -3.6 21 +19 +19 1020.0 976.2

 

Местоположение метеостанции Теннант-Крик (Северная территория, Австралия): широта -19.63 долгота 134.18 высота над уровнем моря 377 м.

В архиве по умолчанию представлена погода в Теннант-Крике за последнюю неделю. Архивные данные за месяц целиком и за предыдущие месяцы, начиная с января 2011 года, Вы можете получить, выбрав интересующий диапазон дат из раскрывающегося списка и нажав кнопку "Ввод!".


*Определитесь, кто Вы:
робот инопланетянин человек

Внимание! Время в таблицах - всемирное. Для получения местного времени необходимо прибавить поправку, которая равна 9.5 ч.

Смотрите также архив погоды в соседних городах и на ближайших метеорологических станциях:

Погода на Виноградной ферма (Северная территория, Австралия) (319 км)
Погода в Дейли Уотерс (Северная территория, Австралия) (386 км)
Погода в Ладжаману (Северная территория, Австралия) (400 км)
Погода в Аэропорту Макартур Ривер Майн (Северная территория, Австралия) (408 км)
Погода в Камоауиле (Квинсленд, Австралия) (413 км)
Погода в Джервойсе (Северная территория, Австралия) (422 км)
Погода в Раббит Флат (Северная территория, Австралия) (439 км)
Погода в Борролооле (Северная территория, Австралия) (454 км)
Погода в Элис-Спрингсе (Северная территория, Австралия) (465 км)
Погода на Руднике Century Mine (Квинсленд, Австралия) (485 км)

Пояснения к столбцам:

Ветер - указаны скорость ветра в м/с - средняя за 10 мин, порывы в срок и между сроками (в фигурных скобках) и направление, откуда дует ветер: С - северный, СВ - северо-восточный, В - восточный, ЮВ - юго-восточный, Ю - южный, ЮЗ - юго-западный, З - западный, СЗ - северо-западный.
Видимость - горизонтальная дальность видимости в метрах или километрах. При видимости от 1 до 10 км при отсутствии осадков обычно наблюдается дымка, при ухудшении видимости до 1 км и менее - туман. В сухую погоду видимость может ухудшаться дымом, пылью или мглою.
Явления - указаны атмосферные явления, наблюдавшиеся в срок или в последний час перед сроком; фигурными скобками обозначены явления, наблюдавшиеся между сроками (за 1-3 часа до срока); квадратными скобками обозначены град или гололедные отложения с указанием их диаметра в мм.
Облачность - указаны через наклонную черту общая и нижняя облачность в баллах и высота нижней границы облаков в метрах; квадратными скобками обозначены формы облаков: Ci - перистые, Cs - перисто-слоистые, Cc - перисто-кучевые, Ac - высококучевые, As - высокослоистые, Sc - слоисто-кучевые, Ns - слоисто-дождевые, Cu - кучевые, Cb - кучево-дождевые. Подробнее классификацию облаков см. в Атласе облаков (PDF).
T - Температура воздуха - температура, измеренная на высоте 2 м над землей.
Td - Температура точки росы - температура, при понижении до которой содержащийся в воздухе водяной пар достигнет насыщения.
f - Относительная влажность воздуха - влажноcть воздуха, измеренная на высоте 2 м над землей.
Te - Эффективная температура - температура, которую ощущает одетый по сезону человек в тени. Характеристика душности погоды. При расчете учитывается влияние влажности воздуха и скорости ветра на теплоощущения человека.
Tes - Эффективная температура на солнце - температура, которую ощущает человек, с поправкой на солнечный нагрев. Характеристика знойности погоды. Зависит от высоты солнца над горизонтом, облачности и скорости ветра. Ночью, в пасмурную погоду, а также при ветре 12 м/с и более поправка равна нулю.
P - Атмосферное давление - приведенное к уровню моря атмосферное давление.
Po - Атмосферное давление - измеренное на уровне метеостанции атмосферное давление.
Tmin - Минимальная температура - минимум температуры воздуха на высоте 2 м над землей.
Tmax - Максимальная температура - максимум температуры воздуха на высоте 2 м над землей.
R - Количество осадков - Количество выпавших осадков за период времени, мм. При наведении курсора мыши на число - период времени, за который выпало указанное количество осадков.
R24 - Количество осадков - Количество выпавших осадков за 24 часа, мм.
S - Снежный покров - Высота снежного покрова, см. При наведении курсора мыши на число - состояние снежного покрова и степень покрытия местности в баллах.